GFSGBSN_850_rhum_021.txt.gz
RH
31 24 22 24 25 28 35 32 36 38 41 41 42 43 42 42 41 38 34 29 26 22 20 20 23 25 25 25 20 19 16 17 16 13 12 15 17 20 19 14 15 9 8 9 7 7 7
39 27 21 28 30 30 36 37 39 40 42 41 42 41 41 42 42 36 31 27 24 23 22 24 25 26 26 30 21 19 17 16 16 17 15 14 13 14 18 15 10 8 7 8 9 8 7
42 28 23 32 35 37 40 40 40 42 43 41 39 39 40 41 39 33 29 27 26 24 25 27 27 28 25 19 21 18 15 13 13 15 16 15 16 19 14 13 10 7 10 9 10 10 11
52 24 26 33 39 41 44 42 42 44 43 41 39 37 39 37 35 30 28 26 25 26 28 30 30 28 21 18 19 17 14 13 13 16 14 12 13 14 10 9 11 14 16 16 13 12 13
61 27 30 36 46 45 45 42 43 44 46 43 39 36 35 34 28 29 27 26 28 29 31 32 30 30 18 19 19 14 13 13 13 15 13 12 13 12 11 16 18 21 18 17 16 14 13
54 29 34 40 49 48 45 43 44 46 46 44 38 33 33 28 27 27 27 28 31 33 35 35 44 32 14 17 12 14 12 14 13 13 12 12 14 21 23 19 20 17 17 20 19 16 17
52 34 38 48 49 52 44 42 45 45 46 45 36 30 29 26 27 26 28 34 38 40 34 16 18 18 20 14 15 14 12 15 16 14 23 19 25 23 20 18 16 16 22 22 20 16 21
52 38 42 53 49 53 43 43 46 45 47 45 36 28 26 26 26 28 32 42 55 51 28 13 17 22 18 19 15 13 13 15 17 22 20 25 23 18 27 28 24 24 24 23 21 22 28
52 39 45 56 54 51 42 44 45 45 47 44 34 27 27 27 27 30 36 44 49 40 42 21 18 18 18 18 16 17 17 18 18 19 22 25 19 21 25 30 32 35 29 27 24 24 28
50 43 49 56 57 50 44 43 44 45 44 41 32 29 28 26 30 30 32 49 43 34 38 22 18 15 18 16 16 16 16 17 21 25 25 25 29 27 28 28 30 33 29 26 25 26 42
41 48 54 57 57 49 45 43 43 43 45 42 32 29 26 32 51 43 49 46 34 36 49 20 19 16 19 19 17 15 19 19 19 23 26 29 29 30 28 26 26 32 28 26 27 35 36
42 48 59 59 56 50 46 41 42 41 47 42 32 29 26 41 51 45 38 24 28 68 43 24 20 20 18 20 20 17 20 20 21 28 29 28 25 25 26 26 24 23 35 45 51 49 60
47 47 60 59 56 51 46 40 40 40 44 41 37 30 31 44 50 37 23 26 63 74 24 26 26 21 23 25 27 27 32 36 36 36 38 34 32 28 26 30 29 35 47 68 69 74 69
48 52 61 58 56 50 47 39 40 38 41 38 40 36 40 44 41 36 23 38 58 43 30 22 26 26 29 28 33 33 34 37 34 37 45 48 47 31 26 28 31 36 44 74 57 72 63
51 58 59 56 54 51 46 38 39 37 38 39 41 41 42 37 34 32 28 65 62 48 24 28 29 31 30 28 32 35 37 35 33 34 42 44 38 29 25 25 31 34 45 40 70 71 76
48 62 57 52 54 52 43 39 38 36 36 38 37 34 32 30 28 25 62 69 53 33 25 26 33 33 34 31 34 40 39 37 36 34 32 38 38 28 25 29 29 30 34 52 68 57 56
52 59 53 49 53 52 43 41 37 36 34 34 33 29 33 29 26 26 61 68 50 27 29 24 30 34 32 34 37 42 43 43 45 39 34 39 35 35 34 35 37 39 42 51 56 70 71
58 54 49 47 52 52 46 42 36 36 33 33 33 45 40 36 31 73 67 53 31 27 26 32 35 32 34 41 53 51 52 45 46 44 33 40 53 61 38 34 32 31 39 46 68 51 83
57 50 46 46 52 52 50 43 36 35 34 35 37 71 61 36 53 80 50 41 30 28 30 30 33 36 38 52 58 56 54 47 34 44 43 38 51 68 54 48 36 36 38 60 61 70 60
52 46 45 46 52 52 50 42 37 34 33 35 46 78 60 49 40 44 47 38 37 32 32 32 34 37 41 52 60 61 56 48 32 37 43 45 57 49 60 45 41 32 33 51 53 77 65
48 46 43 48 52 51 51 45 38 33 34 41 55 54 47 67 63 67 50 41 40 38 32 32 34 36 42 51 56 64 56 48 38 39 47 50 54 49 52 52 41 37 36 46 52 53 58
48 43 42 47 50 51 56 52 42 33 35 47 58 54 39 41 33 52 62 50 44 39 36 36 40 48 40 49 49 64 52 44 33 45 57 66 69 46 56 61 65 46 41 50 49 45 57
47 41 42 44 46 51 59 55 43 34 37 48 54 56 26 72 59 65 68 50 47 41 45 41 49 57 55 54 50 49 45 43 47 53 73 66 74 60 50 74 64 50 58 54 44 42 43
45 42 38 40 42 49 57 56 44 34 32 42 49 56 45 80 54 50 54 42 49 44 50 51 44 54 48 44 42 42 46 57 62 72 56 77 88 85 68 66 44 36 44 43 44 50 61
45 40 37 35 38 47 55 54 40 32 38 41 54 56 40 94 68 53 57 66 59 57 65 64 53 45 40 29 60 50 68 60 65 82 79 67 86 96 71 71 44 37 49 54 53 52 69
47 40 35 31 36 44 54 51 46 36 31 46 49 48 35 57 70 52 61 54 70 74 70 65 59 47 44 69 72 60 49 42 67 71 74 76 73 72 98 56 44 35 50 42 41 69 67
46 41 34 32 35 39 52 49 47 41 43 47 52 44 35 51 62 54 60 58 51 65 81 65 60 55 47 90 87 83 79 56 75 76 91 94 96 83 100 80 68 50 48 40 59 52 66
47 42 36 34 32 35 41 45 43 39 39 38 46 43 36 51 63 58 49 48 52 50 78 61 66 64 78 77 80 91 94 84 78 68 85 91 97 97 97 94 63 44 52 59 54 38 43
48 42 40 37 32 32 33 36 40 37 33 33 33 39 38 38 60 62 58 49 43 41 43 61 47 60 55 91 96 96 97 96 83 79 64 71 64 78 72 71 45 44 44 40 36 34 52

GFSGBSN_850_rhum_024.txt.gz
RH
56 53 25 18 22 22 23 23 30 33 37 36 39 42 38 40 42 45 44 40 32 26 23 23 21 25 27 26 18 22 17 18 19 19 18 18 20 19 23 21 16 14 9 10 8 10 19
61 62 36 22 22 24 26 27 34 36 40 40 41 42 35 38 43 45 43 38 29 27 25 22 25 29 29 42 20 22 18 18 17 16 15 18 14 16 20 17 13 11 8 9 10 8 9
60 64 54 27 25 23 27 33 37 40 43 44 40 39 37 38 42 43 39 35 30 26 23 25 29 30 31 19 21 19 18 15 15 15 18 17 14 17 19 15 11 8 9 11 12 10 13
54 59 53 34 26 24 30 39 42 42 44 44 41 40 36 37 40 38 36 32 28 26 27 30 33 34 22 17 19 19 14 13 14 14 16 18 16 21 19 11 14 14 16 14 12 12 14
63 55 52 40 29 26 36 44 46 43 46 47 44 38 35 36 36 36 34 28 28 29 32 35 36 37 22 17 19 15 13 13 14 15 17 18 17 14 12 17 18 21 20 17 15 14 14
66 59 54 37 29 29 39 48 45 45 47 46 43 36 34 34 34 35 31 30 32 35 37 39 49 42 16 18 15 14 13 13 16 15 15 14 15 22 24 15 17 17 19 20 17 16 22
67 64 53 40 29 33 43 48 46 47 48 46 42 35 32 31 32 31 31 36 44 44 40 20 21 20 22 16 15 14 14 13 16 15 22 20 26 24 20 18 16 18 20 20 21 18 44
72 69 50 42 30 39 48 47 46 49 48 47 41 33 29 30 29 30 35 43 58 48 42 18 19 21 17 20 19 13 13 16 17 22 20 26 25 20 27 26 25 25 26 24 24 28 44
78 74 51 40 32 43 49 46 46 48 48 45 40 31 28 30 30 32 38 43 53 51 47 25 18 15 18 20 17 17 17 17 19 20 24 28 21 24 27 31 32 34 28 27 27 31 37
81 80 56 37 35 48 52 46 47 47 48 45 39 30 30 33 36 32 34 52 50 47 39 26 20 17 18 17 17 17 18 17 22 27 27 31 29 27 28 30 31 31 30 27 28 34 42
88 84 58 38 37 51 53 47 46 46 47 45 39 33 33 36 33 36 49 48 39 40 49 21 19 17 19 20 16 17 21 19 22 26 27 30 29 29 30 27 28 33 32 32 33 40 37
99 91 57 40 40 54 54 49 46 46 45 46 41 34 34 49 46 49 38 28 32 66 46 24 21 19 21 22 21 20 22 21 23 33 34 32 27 28 28 30 26 29 40 48 54 52 58
100 98 58 43 47 55 53 50 47 46 45 47 44 33 33 51 50 39 26 32 58 74 26 27 26 20 24 30 31 30 35 39 33 39 42 36 34 30 28 32 31 42 48 70 68 74 71
100 100 62 47 54 57 52 51 48 45 46 46 48 39 36 52 45 34 27 36 46 44 32 24 27 27 30 30 33 35 34 39 35 39 48 46 40 30 27 30 34 38 46 73 58 78 67
100 98 66 50 59 58 52 52 47 44 45 43 48 46 57 41 35 31 24 56 53 53 26 31 29 33 32 31 33 38 39 37 36 35 43 44 39 30 26 28 32 38 48 44 71 71 78
98 100 68 50 61 59 52 52 46 43 44 44 48 59 46 32 28 28 48 50 53 45 28 27 32 32 36 34 36 40 39 41 37 39 35 40 39 31 27 30 33 31 40 51 69 54 51
98 99 63 53 60 56 50 53 46 44 41 50 60 40 42 30 27 25 49 52 56 32 31 26 33 35 34 34 40 44 44 44 45 41 37 37 38 37 32 37 39 41 45 55 59 70 70
100 96 60 60 57 54 52 48 46 44 41 53 46 45 46 29 37 70 64 60 41 28 30 34 35 31 35 43 50 49 47 44 47 47 37 43 54 59 36 34 39 34 40 45 63 47 84
100 84 60 59 52 54 52 47 46 44 39 47 35 73 59 32 60 81 51 44 35 29 33 32 36 37 44 55 56 56 54 47 36 41 42 41 52 67 48 41 34 37 49 58 61 70 66
91 71 63 54 49 54 51 48 45 41 38 49 39 88 66 53 31 46 42 43 38 34 35 34 40 40 48 56 62 64 57 48 36 41 47 42 56 48 52 39 42 35 43 52 51 75 64
81 66 58 49 50 53 50 49 43 40 40 47 42 64 58 78 73 49 46 43 42 38 34 34 38 39 46 55 58 63 57 48 39 44 53 47 53 50 56 58 43 36 38 54 51 50 54
69 64 52 47 52 53 51 49 40 40 42 59 59 51 46 56 57 60 62 53 44 40 38 37 40 48 42 51 47 64 55 44 29 53 59 63 65 45 58 65 64 52 42 46 50 48 59
67 56 49 50 52 53 53 48 41 41 41 52 59 45 33 71 72 67 74 55 48 46 48 43 44 53 48 51 51 51 45 45 47 58 71 65 73 55 49 70 58 53 50 54 52 52 50
61 52 49 51 53 53 56 50 42 39 40 44 51 46 42 76 67 66 60 48 50 44 50 53 45 52 54 50 47 47 52 63 68 79 62 73 73 77 67 66 48 36 42 47 48 46 50
54 51 50 51 51 56 59 55 44 37 41 42 48 54 42 91 57 51 61 71 62 60 66 66 58 48 43 35 65 56 69 61 66 84 76 65 80 94 69 69 43 26 39 55 55 50 62
52 51 49 48 50 58 61 54 44 37 41 42 51 56 43 59 70 44 64 58 72 75 70 73 62 46 45 70 68 62 58 46 60 70 74 72 70 70 93 55 44 35 43 44 40 70 52
52 48 46 47 53 61 58 52 43 35 40 40 49 51 43 58 68 54 59 60 53 66 83 68 57 56 46 88 84 73 60 54 66 71 93 96 97 78 100 74 63 44 46 41 56 54 58
50 47 46 50 57 59 55 50 40 38 37 47 52 51 42 58 69 58 49 46 53 51 79 66 67 62 76 73 79 85 89 83 75 63 90 86 96 97 95 87 65 41 51 56 52 34 35
49 45 45 47 53 57 61 60 50 42 48 47 49 45 42 44 68 66 60 51 41 40 45 61 48 60 53 86 93 97 95 95 83 75 70 72 67 78 70 70 43 43 49 40 40 36 38

GFSGBSN_850_rhum_030.txt.gz
RH
93 91 90 72 54 48 41 23 19 21 21 21 23 35 36 38 38 38 36 40 40 40 34 27 20 19 21 36 28 22 20 12 15 18 25 19 17 14 11 12 15 14 11 11 17 24 17
98 92 89 89 61 52 46 30 21 22 22 22 26 38 41 39 39 38 38 40 39 36 31 25 22 22 25 37 17 22 19 20 17 20 25 21 17 16 17 18 15 13 10 9 10 18 26
100 99 94 91 85 54 43 35 22 24 24 24 32 38 44 42 40 39 39 40 34 32 27 26 24 27 29 32 21 23 19 22 21 20 22 22 20 17 19 18 14 10 10 9 9 13 20
90 99 80 95 91 65 50 42 27 25 25 29 36 42 47 44 41 38 37 35 33 32 28 27 29 30 41 14 18 18 20 17 18 23 25 26 26 21 20 15 11 9 9 10 11 12 14
82 97 98 81 91 80 60 48 32 25 27 35 39 44 48 44 40 35 34 32 33 30 30 32 36 38 34 18 19 19 16 18 17 21 27 23 24 21 19 14 12 11 12 11 13 14 13
74 83 100 79 76 88 63 52 39 25 26 39 42 46 49 45 38 33 33 33 34 34 34 40 41 56 19 19 20 16 14 17 24 24 28 26 21 16 14 13 18 14 14 9 11 15 11
93 77 94 97 93 88 72 58 44 26 29 42 44 49 49 44 36 32 34 37 52 57 39 37 30 36 22 19 17 15 15 17 20 19 18 21 18 15 12 12 10 10 12 13 15 26 18
82 84 89 99 100 91 83 65 48 29 31 45 46 51 49 42 34 34 35 67 46 51 39 25 28 26 18 16 22 15 15 16 17 15 17 18 16 19 20 15 14 12 13 20 22 24 24
79 80 77 97 100 91 93 68 52 30 36 48 48 52 49 39 33 32 31 38 58 62 50 33 27 24 17 18 17 13 16 17 16 15 18 18 21 22 18 17 17 20 18 22 20 26 25
88 82 74 86 100 96 96 72 59 35 41 52 51 52 49 35 36 30 32 40 45 64 29 21 24 23 21 22 16 19 18 17 17 18 22 21 22 20 19 20 19 21 22 20 23 20 19
78 86 79 70 95 100 95 78 63 37 44 53 53 53 48 36 40 34 50 38 62 56 34 18 20 18 21 17 17 21 20 19 14 22 23 25 22 21 20 25 24 25 23 20 20 20 22
73 73 72 82 68 99 97 84 71 37 49 54 54 55 53 37 41 35 53 66 57 44 36 22 18 18 20 20 20 23 23 22 24 22 22 25 24 22 23 26 23 26 25 25 24 24 28
73 73 76 76 64 88 99 90 75 42 54 56 55 55 47 35 57 43 66 63 39 42 24 24 22 19 18 21 23 23 23 23 19 28 28 25 25 23 25 26 28 27 26 27 35 34 31
72 73 72 73 72 70 100 96 76 50 58 58 57 56 45 41 59 74 66 42 40 25 24 21 20 20 22 22 26 27 26 24 26 24 24 25 32 23 24 25 22 25 24 26 27 32 28
77 75 70 71 76 72 100 97 82 56 63 60 60 60 48 37 48 74 57 44 31 29 23 23 21 23 26 24 23 26 26 24 26 27 20 25 27 24 26 25 25 29 27 31 41 55 48
73 77 75 70 81 77 95 100 88 63 67 60 59 59 50 37 47 61 54 37 27 30 25 20 22 20 27 24 23 27 29 30 30 30 30 28 31 27 27 26 28 27 27 34 35 46 32
69 75 79 81 85 76 92 100 93 65 67 65 80 61 50 43 56 70 45 32 28 37 31 22 21 26 23 28 21 25 28 33 32 30 27 24 26 33 30 28 27 32 31 31 28 37 28
72 69 76 86 92 78 95 100 91 67 70 71 73 50 56 54 57 45 38 28 36 29 34 27 23 24 25 28 30 23 27 27 38 31 29 30 31 40 30 29 29 27 27 25 28 32 43
76 79 76 80 98 99 100 100 82 70 76 77 59 67 96 69 53 55 38 30 37 28 29 31 28 28 32 33 36 35 36 43 40 33 33 32 34 41 36 31 29 30 29 26 33 38 38
79 81 73 76 99 100 100 99 72 72 67 65 54 70 82 65 40 34 34 30 34 36 32 34 36 37 38 40 42 45 43 41 42 38 40 32 35 32 35 26 26 32 32 28 25 36 26
62 76 74 94 90 99 100 94 70 71 63 72 58 46 49 59 44 34 29 27 31 36 33 34 36 31 33 45 43 45 42 37 41 49 45 36 36 35 33 34 32 28 28 31 28 25 32
53 76 81 86 98 98 100 91 70 70 62 82 53 52 58 40 34 32 39 33 28 34 32 32 33 35 36 39 31 42 38 34 33 44 41 41 42 43 44 41 37 36 29 26 28 26 28
67 78 90 97 95 99 100 90 71 74 62 71 52 42 38 64 39 36 33 27 26 36 47 37 33 38 41 42 46 43 44 36 32 40 46 44 48 43 39 42 41 61 37 27 25 27 28
83 93 99 99 99 100 100 78 76 75 65 62 47 40 44 57 44 30 30 32 33 34 40 47 41 37 58 55 47 45 46 44 42 47 43 51 45 56 59 60 76 19 26 26 26 23 20
88 100 99 95 100 100 89 69 78 70 60 58 48 35 38 99 43 34 34 36 47 51 54 50 62 59 54 49 48 51 61 76 60 49 44 39 45 71 83 40 25 13 23 27 33 22 20
99 98 97 99 98 91 68 73 73 64 56 63 48 36 30 68 59 33 39 47 48 52 58 69 70 62 44 50 60 66 59 42 50 56 51 43 45 48 66 86 85 26 31 38 34 32 24
98 99 100 99 84 66 69 71 67 62 55 63 51 48 36 57 54 53 40 51 52 50 56 61 60 60 51 69 96 70 53 38 42 56 89 80 83 84 66 82 42 25 26 41 38 30 32
98 91 82 71 63 68 68 66 64 55 54 62 50 45 45 60 74 62 48 57 56 50 59 61 55 61 62 85 84 63 83 48 42 36 54 57 75 90 74 93 78 31 40 45 35 37 40
78 74 67 66 67 65 64 68 63 50 52 56 53 53 50 52 87 64 52 45 45 53 57 59 51 52 47 63 80 81 95 91 63 53 48 51 45 47 44 39 33 36 35 40 46 44 44

GFSGBSN_850_rhum_036.txt.gz
RH
36 72 88 84 83 98 92 90 77 55 45 28 20 21 22 24 26 35 36 32 32 35 32 27 23 19 19 58 32 30 18 18 9 12 25 17 15 10 10 9 9 9 10 10 22 22 21
2 10 73 91 80 84 89 91 90 65 52 40 22 23 23 26 29 39 38 31 32 33 29 24 23 20 27 36 19 26 20 18 15 17 22 16 11 10 10 9 8 9 11 18 20 16 18
2 2 5 70 90 80 91 79 90 86 58 48 28 24 27 29 34 41 38 32 33 30 27 23 23 24 57 25 23 27 27 23 18 21 16 15 12 13 12 14 11 12 12 14 14 16 21
2 2 2 5 80 89 86 84 83 91 72 55 42 29 28 34 38 41 37 33 32 28 27 23 26 35 50 24 23 23 23 24 22 18 17 17 18 16 17 17 13 13 13 18 15 12 19
2 2 2 2 8 84 86 92 77 91 85 62 50 33 29 37 42 43 38 33 28 28 24 24 38 63 44 26 22 19 19 19 21 22 20 19 21 19 17 20 17 13 18 14 15 11 16
3 3 3 3 4 12 82 70 83 80 95 70 55 38 30 40 44 44 38 30 24 25 29 28 47 56 28 23 17 17 17 17 20 22 22 22 20 19 18 18 33 22 17 17 13 10 11
6 4 4 8 9 6 26 82 78 76 100 79 60 42 34 44 46 46 39 27 57 74 61 35 30 29 18 17 17 16 15 16 20 21 23 21 22 22 19 19 18 16 17 14 10 9 11
10 9 9 6 12 12 8 59 80 82 98 90 67 45 37 46 48 49 41 66 46 58 52 41 21 28 24 23 17 14 13 16 18 22 32 26 20 26 21 17 17 15 15 19 11 10 10
50 26 13 16 14 17 13 43 74 93 93 98 72 52 38 50 50 45 36 34 51 56 47 28 24 21 21 18 16 12 13 13 20 29 29 34 25 26 18 15 17 14 14 18 16 11 10
57 86 63 26 25 30 21 17 78 72 98 100 77 59 41 54 48 41 53 25 44 58 49 25 20 18 19 16 15 12 12 12 32 30 29 40 26 22 18 16 13 16 19 17 15 16 20
72 99 97 96 69 53 43 19 65 79 96 100 80 62 43 58 76 60 59 46 68 78 64 17 18 16 15 15 13 13 13 13 16 18 19 44 40 28 17 20 18 21 21 19 13 16 27
93 76 98 94 94 96 85 35 40 95 99 98 85 63 52 63 53 53 73 74 70 66 55 18 14 16 15 15 12 12 13 14 15 16 15 29 31 42 23 19 17 19 19 17 18 19 54
100 83 82 96 97 96 91 59 34 90 98 99 91 68 49 66 66 45 64 90 62 52 16 18 17 16 16 16 14 12 16 14 17 24 22 16 18 19 20 25 16 15 18 36 74 73 44
94 100 85 89 92 94 91 75 46 83 94 100 97 78 50 65 83 92 92 88 60 25 26 12 14 15 17 14 14 14 14 15 12 13 18 21 40 18 16 16 38 39 15 39 62 94 44
81 89 96 85 93 89 90 85 65 78 89 100 100 88 66 57 68 97 86 91 47 27 17 16 14 17 17 14 14 14 15 15 13 12 20 40 38 25 18 14 16 17 21 18 32 46 57
98 91 99 93 99 90 88 84 68 78 88 100 100 99 62 56 68 99 88 69 37 21 16 14 18 16 18 15 17 17 16 13 12 11 25 45 77 39 21 18 17 20 16 30 24 40 41
90 98 99 97 98 100 88 77 65 77 83 100 100 80 57 70 80 91 81 56 40 22 17 19 16 16 16 16 16 16 16 13 13 16 17 29 45 33 24 22 16 24 24 19 17 29 48
99 98 98 96 94 99 92 78 74 74 77 98 92 67 51 64 82 52 68 42 30 25 17 19 17 14 16 17 17 16 17 17 15 16 21 17 21 34 24 18 17 18 23 21 55 33 36
99 97 87 81 82 92 96 78 73 75 77 100 78 63 82 58 65 62 51 42 28 26 21 22 20 17 14 17 20 16 15 30 25 21 24 24 27 39 26 23 21 22 17 16 20 34 39
95 89 74 64 84 94 99 83 74 72 81 100 65 82 100 91 42 46 54 42 33 24 19 19 20 16 18 18 17 20 18 32 31 27 30 29 24 23 38 24 22 28 22 16 20 59 40
84 74 79 84 78 93 99 82 81 71 80 100 69 56 70 89 75 46 44 36 33 29 20 20 20 17 23 24 21 25 19 35 32 37 29 28 27 22 19 19 22 24 21 18 18 22 34
76 73 91 91 96 84 96 87 96 81 86 100 72 49 54 49 54 50 50 43 29 23 22 26 22 18 22 24 23 26 23 33 30 36 30 29 38 34 36 27 25 28 21 21 20 17 17
83 88 99 94 95 98 92 98 99 100 99 100 82 61 48 51 54 53 52 39 32 24 22 21 22 22 25 25 30 31 29 26 23 36 37 36 47 52 53 34 33 52 34 26 22 17 18
99 91 94 99 100 95 85 88 95 99 98 95 82 65 56 62 49 47 44 33 26 25 33 23 22 26 36 34 33 32 31 31 31 32 29 40 47 66 71 65 65 20 15 15 18 16 13
99 99 98 98 98 86 84 85 71 80 98 98 77 81 63 88 42 39 40 33 24 22 30 29 42 40 36 36 49 54 59 55 40 29 30 30 51 75 94 54 29 21 15 18 19 19 17
82 89 95 87 88 88 87 82 82 88 98 92 92 100 85 69 54 33 31 28 34 54 52 51 46 40 36 47 68 58 62 39 39 41 27 29 39 70 69 80 76 33 21 20 19 38 23
61 76 72 66 81 88 84 91 86 90 98 100 99 99 100 67 42 35 32 34 34 54 58 53 55 52 50 87 92 73 57 29 51 60 90 74 79 87 73 87 59 24 22 25 43 52 28
58 61 62 66 75 82 84 87 88 94 97 100 86 99 98 76 35 35 26 25 30 45 68 52 54 50 62 81 86 71 83 55 43 32 62 71 83 94 83 95 88 21 26 38 41 30 31
63 64 74 75 78 85 84 91 96 94 99 100 96 85 82 99 67 53 42 39 38 41 48 52 41 44 48 54 71 83 92 93 74 59 26 50 44 61 57 61 31 22 25 26 30 32 35

GFSGBSN_850_rhum_042.txt.gz
RH
1 1 2 8 37 70 78 64 77 76 95 89 82 48 30 20 18 19 20 24 31 29 28 24 23 20 17 15 10 20 24 18 16 9 10 13 23 24 22 15 13 14 13 23 40 42 43
2 2 1 1 2 10 42 57 70 78 80 94 88 72 38 25 19 19 22 26 32 29 28 25 22 20 20 36 27 28 27 18 16 10 17 19 19 20 19 17 19 18 20 38 36 37 37
3 3 2 1 1 2 3 10 56 80 79 80 91 87 54 32 22 20 24 29 34 29 26 26 23 21 21 7 23 21 28 25 17 15 15 20 20 23 18 22 18 20 30 41 41 41 34
4 3 3 2 2 2 2 2 18 78 79 67 77 91 73 40 27 22 26 32 34 29 26 26 24 28 18 12 18 22 26 26 26 21 17 18 19 20 17 18 20 21 28 43 40 37 27
4 4 3 3 2 2 2 2 3 44 77 77 77 87 86 51 33 24 26 34 32 29 26 26 25 56 20 20 20 23 22 22 22 25 21 21 21 21 20 28 33 26 24 25 37 30 30
10 8 4 3 3 3 2 2 2 12 68 80 50 80 94 65 39 25 27 35 29 33 37 30 33 46 19 22 23 17 18 19 21 23 23 22 23 31 33 35 41 29 26 23 24 34 32
94 48 14 8 6 4 4 3 2 3 20 65 64 78 99 79 45 26 29 36 49 68 62 37 24 16 23 23 23 18 18 17 19 23 31 35 41 42 35 31 28 28 27 32 29 26 33
100 97 85 25 13 10 5 4 3 3 4 31 58 80 86 92 52 28 38 41 60 53 62 43 40 54 28 34 33 20 17 16 23 38 43 44 44 38 35 29 30 30 33 35 26 21 30
98 100 100 91 51 53 16 8 6 4 4 19 57 85 87 97 55 29 43 47 48 41 64 48 36 32 21 23 27 22 18 18 35 40 42 43 36 32 32 28 28 30 35 34 30 20 15
96 98 99 100 99 96 95 43 15 8 7 12 45 90 89 94 51 31 68 81 31 38 84 57 44 30 23 17 22 19 16 20 30 39 43 39 32 37 36 36 31 32 28 28 25 31 30
98 95 98 99 100 100 100 98 85 30 12 11 50 98 90 95 42 58 72 78 57 68 77 33 41 23 15 21 18 17 15 16 34 38 38 36 37 34 36 34 28 31 24 28 27 31 32
98 98 91 96 99 99 100 100 100 80 26 20 53 92 99 94 61 43 74 79 67 81 86 41 27 25 24 21 21 16 15 15 18 36 31 32 34 35 32 28 25 25 29 38 48 43 43
95 100 98 88 93 98 99 99 99 100 52 41 70 93 100 86 74 30 58 72 91 89 40 34 29 25 26 28 25 21 20 19 24 40 41 32 35 32 30 32 28 28 36 53 59 70 54
70 92 99 97 84 91 97 98 98 97 98 50 75 94 100 79 75 74 69 89 92 58 51 30 27 26 29 26 25 23 22 24 23 27 40 45 43 31 31 32 39 36 36 59 46 72 58
66 74 86 100 89 80 87 96 99 99 98 80 78 99 100 94 82 61 96 94 71 64 30 29 25 33 31 27 24 26 27 28 22 24 30 43 46 41 35 34 29 31 40 35 65 70 78
68 78 100 100 98 76 80 99 94 94 97 86 90 99 97 94 92 70 98 76 66 48 38 34 33 30 36 30 29 29 28 23 23 22 25 41 49 40 37 31 29 30 25 38 53 53 61
62 72 100 100 98 92 69 85 99 90 93 87 93 98 90 94 99 86 90 71 60 42 46 44 38 30 29 30 27 31 27 20 22 26 33 47 38 40 40 37 33 34 32 30 40 57 58
83 76 91 100 99 97 74 67 99 90 93 88 100 93 80 86 94 85 84 65 52 47 45 50 45 38 31 32 30 29 28 22 27 36 37 44 56 55 40 33 35 32 34 38 63 37 59
98 85 84 98 98 97 70 63 99 99 87 92 93 78 84 81 92 83 67 64 56 48 51 48 43 39 26 28 33 35 32 35 31 30 39 44 53 62 45 37 36 36 30 34 51 59 53
99 87 89 100 99 92 61 55 96 100 91 90 84 90 97 98 69 58 68 68 70 48 52 55 55 46 40 28 33 34 46 36 38 35 33 30 44 50 55 38 36 37 35 39 39 68 52
97 77 98 98 98 89 56 56 83 100 100 88 86 69 70 92 88 58 55 61 70 63 52 47 49 51 53 36 31 43 49 41 39 32 34 36 40 32 32 31 30 30 32 35 33 37 45
94 94 99 98 93 73 59 49 74 99 100 98 84 80 69 80 71 78 58 61 55 49 46 41 53 48 42 36 34 38 47 45 38 40 34 41 40 34 36 41 33 32 30 33 32 30 37
97 86 92 92 83 69 75 69 84 100 100 97 98 74 70 63 76 85 72 57 48 43 42 38 43 45 45 38 28 26 27 30 40 44 49 49 59 66 56 47 40 58 39 33 31 31 30
99 96 87 82 74 59 70 98 97 100 100 96 94 87 90 82 79 80 63 52 49 45 42 40 36 46 36 33 35 38 45 53 51 57 48 61 66 76 76 60 63 45 30 29 39 35 32
98 91 90 84 73 46 82 100 94 100 100 98 95 95 99 93 66 73 63 53 43 41 54 37 40 36 33 38 70 63 77 52 47 48 45 55 75 82 70 73 51 36 24 27 37 39 34
97 88 82 72 48 45 75 81 90 89 100 96 97 99 99 97 81 58 69 52 54 65 54 53 44 39 40 83 81 68 76 60 57 43 53 63 75 75 91 67 62 47 28 25 34 61 40
80 77 76 66 53 53 66 65 79 73 98 99 100 100 99 100 70 60 60 61 45 54 77 77 56 53 55 96 91 81 78 55 70 66 62 82 85 77 96 78 65 46 30 27 39 46 40
77 79 82 79 64 62 58 59 72 70 96 99 98 100 100 95 85 85 51 44 44 50 79 72 74 74 91 82 86 89 79 72 74 63 66 64 85 90 95 87 60 39 32 39 47 44 42
85 79 73 73 71 80 75 73 77 85 91 98 100 99 99 100 95 96 73 63 49 44 52 74 57 64 69 84 94 98 88 91 74 86 61 63 62 74 71 72 51 37 38 40 40 47 54

GFSGBSN_850_rhum_045.txt.gz
RH
4 3 3 2 8 46 72 78 74 61 72 71 87 85 76 42 27 21 20 23 24 29 28 25 22 18 17 16 9 18 25 20 18 10 10 13 19 24 25 19 15 16 14 32 23 41 46
8 4 4 3 2 3 9 35 71 57 52 69 59 88 83 71 35 24 21 23 27 31 29 26 23 20 21 30 26 27 27 18 15 11 12 17 20 22 25 20 20 20 40 48 48 44 42
5 8 6 4 3 2 2 4 12 20 36 71 71 66 86 84 52 31 22 22 28 33 31 26 24 21 20 9 29 27 27 27 17 15 15 19 20 21 22 22 20 22 42 45 44 38 31
8 6 5 7 6 4 3 2 4 4 16 72 74 63 69 85 74 36 26 23 28 34 32 26 25 23 16 6 15 23 24 25 26 22 19 19 21 22 23 20 23 20 37 52 41 39 29
54 10 13 5 5 6 4 3 3 4 9 39 74 63 70 74 80 49 30 25 28 34 31 27 26 28 16 21 15 21 25 24 22 22 25 22 23 23 24 29 35 29 34 34 41 35 34
91 79 22 10 7 7 6 6 3 3 5 27 74 71 58 64 83 64 32 26 31 31 46 49 36 34 10 24 24 20 21 22 21 23 25 25 24 34 40 37 42 33 28 28 43 32 36
100 99 96 67 11 10 9 8 6 3 3 8 59 79 61 69 90 75 32 30 39 67 65 41 23 13 12 25 24 18 19 19 21 24 32 38 41 41 36 34 32 31 30 32 29 23 35
97 98 100 100 95 38 29 17 10 7 4 3 37 74 71 87 87 81 35 36 53 66 58 40 35 44 39 41 46 21 20 19 25 35 42 42 43 38 35 36 30 31 30 29 27 24 38
98 95 97 100 100 97 83 70 39 26 8 4 8 53 73 88 90 83 32 68 78 53 54 44 39 34 22 29 36 24 21 18 32 44 45 43 32 33 34 32 30 30 32 32 31 26 28
82 98 96 95 98 98 100 98 98 77 39 13 8 41 80 100 92 78 50 73 41 39 73 55 60 36 31 26 25 21 20 20 32 37 44 39 32 35 34 35 32 34 28 31 34 32 35
75 81 99 90 96 98 98 98 98 100 83 40 22 43 81 100 71 46 75 73 52 70 46 25 45 27 20 22 20 21 20 20 34 39 39 35 40 38 36 33 30 33 25 31 30 34 33
71 71 80 99 89 94 97 98 97 98 100 70 36 72 90 100 93 49 75 69 70 78 64 40 37 38 26 22 22 18 20 18 23 39 34 31 36 33 30 28 30 26 28 38 46 45 47
80 74 68 89 99 92 90 98 98 98 98 99 57 79 97 100 92 76 46 74 94 91 34 40 36 31 27 29 25 22 21 24 35 41 43 33 34 33 34 32 29 30 40 55 57 66 54
83 80 74 65 76 100 87 85 96 100 99 100 87 80 99 100 96 85 69 90 95 62 55 41 29 30 29 29 27 26 25 28 23 32 47 43 43 35 30 31 35 34 38 59 44 66 50
96 87 84 73 68 95 98 84 88 96 96 98 92 80 96 97 99 75 89 98 73 63 44 29 28 33 33 27 28 27 29 28 26 26 33 46 42 38 36 34 29 36 42 35 65 69 78
99 86 88 76 68 82 100 92 79 90 93 94 96 86 93 88 100 100 97 74 64 51 47 47 38 34 39 35 32 32 33 26 24 26 24 37 37 39 39 33 30 32 30 39 56 45 53
98 98 83 86 68 73 98 99 79 98 87 92 98 94 76 82 100 94 92 73 60 46 45 59 51 42 36 36 34 35 30 24 26 26 27 43 35 38 38 42 36 35 36 36 43 57 58
100 98 97 86 82 74 78 100 86 78 90 98 97 92 79 80 96 87 77 68 53 48 46 53 52 55 46 35 36 34 32 26 19 35 34 43 46 50 40 34 34 32 37 38 63 42 63
100 98 99 95 92 84 80 100 89 79 93 100 90 85 85 77 94 84 69 59 58 51 52 55 56 50 43 35 34 36 34 30 36 36 44 47 50 54 43 37 38 36 38 44 52 60 59
100 100 100 99 89 78 99 99 78 67 98 100 80 93 97 97 68 67 72 72 71 53 55 54 61 54 45 40 33 42 43 38 38 34 28 35 53 46 49 40 39 39 35 38 46 73 54
100 100 99 98 93 90 99 99 79 52 98 100 87 68 72 94 90 77 65 65 71 64 56 45 55 63 57 54 34 41 48 44 40 39 42 39 42 40 38 30 33 33 34 44 40 41 49
100 100 100 100 88 97 100 96 88 65 80 100 78 77 69 77 69 74 68 67 64 62 59 58 54 49 46 59 45 44 49 47 45 40 38 43 47 34 42 40 38 35 34 38 39 34 40
100 100 100 100 89 90 99 95 72 58 92 98 88 72 70 69 75 73 66 62 59 55 55 49 49 56 59 54 41 34 32 35 38 46 49 46 60 60 46 49 42 59 44 37 34 35 35
100 100 100 100 88 99 99 94 59 52 71 99 85 86 89 80 78 69 61 59 57 54 54 48 43 48 46 37 43 45 47 53 53 57 48 61 62 72 72 62 66 39 35 33 37 37 36
100 100 100 87 84 95 93 83 60 50 74 99 94 93 96 96 69 67 67 62 52 49 52 46 40 27 31 40 61 60 75 54 47 64 62 58 75 80 70 73 53 38 37 38 35 36 36
100 100 97 95 99 92 90 66 54 53 82 89 100 93 98 99 78 62 70 61 65 61 59 50 43 32 42 76 82 70 79 67 60 50 58 63 73 75 83 70 70 52 36 26 37 56 38
99 100 100 96 86 75 73 63 65 80 81 99 100 100 99 98 74 65 74 69 56 57 66 61 50 64 55 91 92 81 77 58 70 68 64 84 85 82 95 78 68 46 33 29 39 45 39
99 98 92 82 76 57 51 80 94 86 90 99 99 100 98 98 90 88 66 62 60 53 68 71 70 78 88 82 87 87 84 73 70 60 63 70 87 87 90 75 62 37 36 37 42 44 38
99 99 96 82 74 63 48 70 91 98 97 99 100 100 100 98 98 99 86 76 79 69 51 63 60 71 66 83 95 97 89 92 76 82 60 55 66 76 68 68 49 48 40 34 32 35 44